Weather in Zalizny Port

Ukraine / Kherson District     46°07′21″N   32°17′33″E
temp.,
°C
wind,
m/s
gust,
m/s
humid.,
%
clouds,
%
prec.,
mm/h
press.,
hPa
HPBL,
m
6 august, fri
fri600:00+26sse67844 0.0 1009429
03:00+26sse69845 0.0 1008485
06:00+26sse710811 0.0 1006419
09:00+26sse68780 0.0 1006463
12:00+26se56765 0.0 1006349
15:00+27sw357193 0.0 1005310
18:00+27ssw2377100 0.0 1004118
21:00+27wsw3378100 0.0 100347
7 august, sat
sat700:00+26wnw567728 0.0 1004126
03:00+26nnw5784100 0.2 1004256
06:00+25n6880100 0.0 1005373
09:00+26nnw6767100 0.0 1005427
12:00+26nnw797096 0.0 1007405
15:00+27nw9106781 0.0 1006256
18:00+28nw8116479 0.0 1007205
21:00+26nnw13166695 0.0 1009517
8 august, sun
sun800:00+26n9136167 0.0 1010460
03:00+24n811582 1.8 1011399
06:00+23n810580 0.1 1012411
09:00+24n88550 0.1 1013525
12:00+27nnw56560 0.0 1013193
15:00+28nw89580 0.0 1012243
18:00+28wnw911590 0.0 1012272
21:00+27nnw67640 0.0 101383
9 august, mon
mon900:00+26n610560 0.0 1014155
03:00+25n811540 0.0 1014313
06:00+24n710610 0.0 1014258
09:00+26n68600 0.0 1015370
12:00+28nw56610 0.0 1015164
15:00+27wnw10116522 0.0 1014283
18:00+27wnw811649 0.0 1014176
21:00+27nw912685 0.0 1014155
10 august, tue
tue1000:00+27n610580 0.0 1014156
03:00+26n68631 0.0 1014170
06:00+25n68580 0.0 1014211
09:00+26nne45560 0.0 1014188
12:00+27w55570 0.0 1014164
15:00+27w89630 0.0 1013230
18:00+27w79640 0.0 1012111
21:00+27wnw56690 0.0 101271